RH
24 23 18 17 14 14 20 23 28 41 55 74 100 84 76 88 99 79 100 100 97 64 52 43 55 57 56 70 82 100 100 100 100 100 100 100 100 100 100 89 100 99 80 53 83 87 100 100 98
30 24 22 19 12 12 15 18 24 26 36 43 64 90 68 71 83 81 100 100 100 80 61 56 41 38 55 68 69 76 100 100 100 100 100 100 100 100 100 88 100 100 95 77 75 62 96 100 100
37 27 20 19 14 11 17 31 26 25 27 35 42 66 81 76 73 70 99 91 89 100 84 71 47 37 39 55 67 69 60 100 100 100 100 100 100 100 100 100 99 100 100 87 74 81 61 100 100
48 32 24 19 11 10 21 18 25 32 33 34 39 48 69 79 76 70 93 91 76 96 100 68 53 43 40 44 72 67 68 100 100 100 100 84 98 100 100 100 100 100 100 86 71 95 81 62 100
38 34 28 19 12 15 22 20 19 24 26 32 36 38 52 72 88 78 93 88 74 81 99 100 68 53 42 46 58 60 54 74 100 100 99 96 87 98 99 100 100 100 100 100 96 88 100 60 81
48 37 29 22 17 19 22 21 15 18 24 27 32 39 42 54 75 82 91 86 78 77 88 100 98 76 49 44 48 48 64 57 73 100 100 100 100 100 99 99 100 100 100 100 100 98 100 71 59
36 36 29 26 20 18 19 33 21 18 21 24 29 35 38 43 51 62 80 87 79 64 71 95 100 100 74 65 51 68 59 54 56 91 100 100 100 100 100 100 100 100 100 100 100 97 100 99 63
21 22 21 20 17 16 27 33 24 21 18 27 34 33 41 44 41 52 70 80 79 74 67 64 100 100 100 86 71 57 64 62 62 66 86 100 100 100 100 100 100 98 100 100 100 99 61 100 100
23 23 21 20 21 18 28 30 25 18 24 20 27 36 45 42 38 41 54 85 81 78 68 66 65 100 100 100 95 86 90 82 89 75 81 95 100 100 100 93 99 100 100 100 100 100 90 90 71
13 12 12 15 18 16 20 18 19 20 18 17 24 32 39 43 42 34 45 73 92 80 72 69 64 71 100 100 100 100 100 100 100 100 82 92 100 100 100 100 100 93 100 100 100 100 100 100 68
6 6 7 8 9 9 14 13 14 16 15 15 20 28 40 41 43 30 34 55 100 96 74 62 68 58 71 100 100 100 100 100 100 100 100 100 100 100 100 100 100 100 100 100 100 100 100 100 100
6 5 5 6 7 8 9 12 13 13 13 17 20 27 38 42 47 36 28 42 73 98 85 66 58 60 63 78 100 100 100 100 100 99 100 100 100 100 100 100 100 100 100 99 93 99 100 100 100
5 5 4 5 6 6 8 7 11 12 14 16 19 24 34 41 41 36 26 31 52 91 88 76 58 55 59 74 98 100 100 100 100 100 100 100 100 100 100 100 100 100 100 100 100 95 67 100 100
5 5 5 4 5 6 5 8 9 10 16 19 18 24 31 42 45 42 25 24 41 73 83 73 64 50 60 63 70 100 100 68 100 100 100 100 100 100 100 100 100 95 100 100 100 83 94 100 100
5 5 4 4 5 6 4 5 5 13 12 19 18 23 29 42 44 39 32 24 31 53 80 73 68 57 62 62 62 83 100 71 100 100 100 100 100 100 100 100 100 99 96 100 100 99 100 100 100
5 4 4 4 5 6 4 5 6 9 9 20 21 24 30 39 47 46 38 26 26 43 65 75 66 62 56 57 49 52 86 93 93 100 100 99 100 100 100 100 100 100 82 77 80 84 100 100 100
3 3 4 4 4 5 3 7 8 10 11 17 21 28 36 41 48 51 36 28 28 39 49 68 63 63 54 47 34 34 41 84 99 100 100 100 100 100 100 100 83 82 82 84 89 81 80 100 100
2 3 3 4 4 4 3 5 6 10 12 19 24 30 35 40 50 56 38 31 31 38 42 51 64 61 58 46 33 25 31 32 33 85 100 99 100 100 100 99 99 100 88 83 87 82 94 100 100
2 3 3 4 3 3 5 6 5 12 18 21 24 37 39 47 52 62 49 37 34 36 36 42 54 59 59 53 40 25 24 31 21 92 100 100 100 93 100 100 100 100 79 80 87 100 97 100 100
2 3 3 2 3 3 5 6 6 8 19 25 28 35 40 49 56 70 72 40 38 35 32 37 42 49 56 52 46 34 25 22 88 100 100 100 100 98 90 100 100 75 58 56 75 100 100 100 100
3 3 3 2 3 5 4 7 7 9 10 18 32 40 46 52 65 73 77 54 43 38 31 35 37 38 51 51 48 41 34 26 73 100 100 100 100 81 97 100 100 87 55 32 48 96 100 100 100
3 3 3 2 4 6 5 8 9 12 10 18 58 41 48 61 62 75 82 66 53 40 34 31 33 34 37 48 47 46 41 31 26 43 100 100 100 94 69 100 100 91 82 40 34 62 100 100 100
3 3 3 3 4 6 7 8 9 11 15 27 29 44 59 68 67 79 99 90 79 49 42 32 31 30 30 36 43 44 44 40 41 31 32 100 100 100 100 84 100 94 87 84 90 68 99 100 100
3 3 3 3 5 7 8 8 8 10 15 22 44 78 94 84 78 86 98 100 90 77 50 35 28 27 29 28 33 39 41 40 39 40 32 100 100 100 90 100 89 85 78 92 94 96 81 81 92
3 3 3 3 6 8 9 8 8 8 19 33 54 98 99 96 99 93 90 94 96 86 69 39 31 28 27 25 27 31 34 34 36 39 32 44 80 100 100 100 95 100 100 80 91 81 92 88 81
4 4 4 4 7 6 9 8 9 8 20 33 72 100 85 85 89 87 85 99 92 86 71 50 44 38 33 28 25 25 30 34 35 40 49 53 49 100 100 100 100 100 100 58 76 69 77 78 91
4 4 4 4 6 7 9 10 9 10 17 33 63 95 79 90 100 92 93 100 97 93 90 79 57 37 37 35 30 24 26 39 36 35 54 65 100 100 100 100 100 100 100 100 65 78 65 66 66
5 5 4 5 6 6 9 9 10 10 15 29 67 91 92 99 100 98 100 100 97 96 97 88 77 58 36 38 36 27 24 28 48 42 59 88 100 100 100 100 100 100 100 100 100 92 75 81 71
6 6 5 5 6 7 8 9 10 11 15 27 65 88 89 100 100 100 100 93 86 90 99 99 100 92 38 36 37 26 22 28 40 51 57 87 100 100 100 100 100 100 100 100 100 100 100 99 91
6 6 5 6 6 7 9 10 11 11 18 37 67 86 100 100 100 100 100 78 93 86 88 100 100 73 34 33 40 30 27 26 28 46 50 85 100 100 100 100 100 100 100 100 100 90 100 99 89
Wind_Speed
63 64 65 65 58 49 38 37 52 64 70 70 70 79 92 91 81 75 70 71 65 67 64 59 57 54 54 55 49 49 50 50 45 40 41 39 33 30 31 30 34 31 28 20 15 18 19 21 23
70 72 75 74 62 49 28 46 45 55 65 69 76 76 86 93 90 83 76 80 74 73 70 66 63 58 58 57 52 51 50 53 47 44 41 39 37 35 33 31 36 36 30 24 16 16 21 23 26
81 81 84 84 71 47 42 52 53 56 58 63 76 80 80 83 94 92 80 81 82 76 76 72 71 65 61 60 56 53 50 53 48 45 43 40 40 38 33 34 34 41 37 31 22 19 17 24 31
90 95 95 92 69 40 59 62 63 63 61 61 66 80 80 80 89 96 90 84 85 81 78 76 75 70 65 62 58 58 53 54 51 53 50 45 40 38 35 35 40 42 44 36 27 30 21 23 29
100 104 108 102 74 70 75 73 69 69 72 68 69 79 86 87 85 95 92 93 92 84 84 80 79 76 70 66 61 60 58 56 56 56 52 48 44 40 38 35 41 41 48 46 43 35 32 26 28
109 113 119 111 94 91 88 86 79 78 77 77 72 76 88 94 93 93 95 96 96 88 86 84 82 79 75 69 67 65 61 57 57 56 54 51 46 43 42 39 35 39 46 48 46 46 35 20 26
119 124 124 123 113 105 95 101 96 87 85 82 81 77 84 94 100 99 97 96 97 97 88 88 83 82 78 75 72 70 64 61 60 59 55 54 52 47 45 42 39 38 44 46 45 43 44 28 27
130 135 135 132 124 107 109 114 103 94 90 97 91 79 80 88 103 104 100 98 98 95 93 90 88 83 80 77 75 73 70 68 64 63 60 56 54 52 46 44 39 36 39 47 44 39 38 41 36
123 128 126 124 120 114 118 113 104 97 108 102 91 89 92 96 107 109 106 100 99 98 97 91 91 86 83 82 78 75 71 72 70 67 67 61 59 55 51 50 45 39 37 41 42 39 44 40 39
117 120 117 117 120 120 116 106 102 111 107 103 96 94 98 99 105 111 109 103 100 99 99 96 92 91 86 84 84 79 73 72 69 71 71 67 65 61 57 55 53 48 43 40 36 38 43 44 37
98 97 102 106 113 114 113 106 101 104 106 106 104 95 102 106 109 115 113 108 104 104 103 102 97 94 92 85 73 81 77 74 71 71 73 71 68 66 63 56 55 52 48 44 41 41 35 36 40
77 79 85 85 97 101 106 104 101 97 106 107 108 111 114 117 116 116 120 115 110 106 105 102 102 96 93 88 78 74 76 51 74 73 72 69 71 67 66 60 58 55 51 49 48 46 49 42 33
61 70 72 77 84 85 93 95 98 99 101 108 113 121 118 119 121 119 120 122 117 113 107 104 103 100 96 92 88 76 71 76 73 74 72 64 67 67 65 63 58 54 53 47 50 50 51 53 47
57 59 59 64 71 74 83 88 92 97 105 111 122 121 116 117 122 117 123 123 120 114 110 106 103 105 99 95 91 82 68 79 71 79 69 67 69 66 59 61 63 61 56 53 52 53 48 43 38
58 53 52 52 61 65 75 77 79 100 112 116 121 124 124 117 127 124 119 119 123 118 114 107 105 103 99 96 94 92 84 86 69 74 69 62 68 74 71 66 66 65 65 64 60 52 51 49 42
61 49 47 57 55 60 66 70 82 107 114 117 121 123 124 121 126 121 123 121 121 124 117 112 107 104 101 100 95 98 90 85 70 59 73 77 69 63 65 67 67 70 68 66 64 59 53 53 49
57 45 42 48 44 57 59 71 88 106 110 116 122 123 123 125 125 124 124 123 120 124 120 115 109 106 105 103 100 99 93 97 80 75 71 76 70 64 68 69 66 66 68 65 66 60 55 49 48
43 39 39 43 41 54 55 75 89 102 109 118 125 126 126 128 126 124 127 124 121 123 121 115 112 109 108 106 104 99 97 91 89 86 77 75 73 74 71 69 69 67 67 63 62 64 55 54 52
30 31 35 42 46 52 56 75 85 100 109 119 123 127 130 129 128 124 127 125 122 122 124 117 114 111 108 105 104 101 96 91 85 83 79 84 83 81 78 76 74 67 65 61 60 64 62 59 59
25 26 33 36 41 50 57 73 83 97 107 114 121 126 129 128 128 125 124 126 123 121 122 119 113 112 110 108 104 104 101 96 87 83 83 76 79 83 77 73 70 68 67 63 60 64 64 65 61
23 22 29 38 38 50 53 67 75 89 104 114 117 126 129 128 125 124 122 123 125 122 119 116 115 114 113 109 108 103 103 100 103 92 82 82 71 76 71 71 70 72 68 70 65 65 66 64 63
17 19 26 33 35 47 51 66 77 90 98 112 115 120 123 123 124 122 118 121 123 122 117 118 116 115 113 112 108 107 104 106 105 104 96 89 75 69 81 76 73 70 68 71 71 69 69 70 64
14 14 22 28 36 45 53 64 78 86 96 115 123 123 124 124 123 118 109 113 119 119 117 116 117 116 112 111 111 108 110 108 106 105 105 96 83 67 74 81 69 64 67 71 73 77 78 77 74
13 13 19 29 39 49 58 69 80 92 104 115 117 117 119 122 120 113 107 106 115 116 117 115 114 113 113 110 111 113 109 107 108 105 106 101 93 77 69 68 74 67 69 73 70 73 75 75 75
11 14 22 34 47 61 64 73 81 87 100 113 115 114 119 117 109 111 108 103 111 113 114 113 112 110 110 110 109 112 110 109 106 108 107 108 101 85 74 76 70 67 68 68 72 75 72 76 74
13 14 24 34 48 55 62 71 80 87 101 113 114 119 121 115 116 109 106 100 108 112 112 111 111 110 109 110 107 108 112 111 111 107 104 104 97 91 89 81 78 77 71 72 71 72 75 79 75
11 13 23 36 48 53 61 70 77 87 99 113 117 118 118 115 106 103 102 98 101 107 107 106 108 109 109 109 109 107 110 110 111 109 107 101 94 93 86 81 84 80 76 71 77 74 76 76 74
10 11 20 36 48 52 61 68 74 85 97 111 117 117 115 110 97 96 97 98 100 100 101 102 102 106 109 108 109 108 105 106 109 109 105 103 98 92 89 86 82 84 81 78 74 69 68 70 71
11 10 19 31 44 48 58 63 74 84 97 109 116 116 112 106 96 96 99 107 103 100 98 96 95 103 111 107 106 107 105 103 108 107 105 103 107 92 83 85 88 85 84 82 77 75 75 74 74
13 9 18 30 41 48 55 62 71 82 95 108 114 114 107 104 103 105 107 105 102 101 99 100 101 108 108 106 103 107 106 103 103 107 106 106 96 99 91 87 90 94 87 85 80 81 80 79 77
Wind_Direction
272 268 265 263 258 250 236 245 236 234 232 235 235 236 231 230 231 229 220 218 220 219 219 221 217 221 223 219 224 229 227 225 230 234 240 245 253 258 266 272 257 255 266 261 277 284 287 308 319
272 270 267 264 264 252 231 240 234 232 230 233 234 233 234 232 231 230 228 224 221 217 218 220 221 220 222 224 226 222 226 228 228 232 236 241 250 254 261 269 261 258 260 272 268 295 288 293 305
274 269 268 271 269 245 244 249 232 227 227 229 233 231 229 230 231 229 228 229 226 222 219 219 221 221 222 222 222 221 222 225 225 229 230 233 241 246 255 262 264 260 263 264 266 280 299 288 292
276 274 272 274 271 241 264 252 244 233 226 226 234 231 228 227 230 227 226 225 228 223 218 220 220 221 220 223 221 224 222 222 223 228 234 234 235 239 243 256 260 257 262 264 272 290 291 306 286
275 274 274 276 270 272 266 261 250 235 224 223 230 234 225 224 223 227 223 224 226 225 219 219 219 221 220 222 224 227 231 228 227 230 234 235 237 242 245 248 252 255 255 262 268 275 273 299 292
274 275 274 275 273 269 263 260 249 236 231 226 228 235 228 223 221 222 221 223 224 225 222 218 218 219 219 220 224 226 227 232 233 232 235 237 239 242 246 248 250 256 258 255 263 267 281 293 307
273 271 271 271 271 268 263 255 252 236 231 226 227 231 229 223 222 222 223 221 223 224 223 222 219 219 219 220 222 226 227 232 234 236 238 241 243 245 248 250 250 253 258 259 261 267 273 280 302
271 268 268 268 269 264 255 251 249 242 229 227 227 225 228 226 222 221 219 220 220 223 223 221 220 219 219 219 220 225 228 231 233 236 238 239 245 246 247 254 255 254 254 260 256 264 270 275 285
266 265 264 263 260 258 251 248 247 238 233 221 220 224 223 220 222 218 219 217 218 218 223 219 221 220 219 218 220 222 226 230 233 237 239 241 244 245 248 251 254 256 255 259 257 261 274 271 273
265 262 261 258 255 252 249 245 240 238 227 218 214 221 221 217 220 217 216 216 215 215 216 219 217 219 218 218 220 223 222 228 232 233 236 239 243 244 248 251 254 254 255 256 257 260 263 264 275
262 261 256 252 249 247 244 241 234 232 223 213 209 215 223 217 218 217 213 213 213 213 212 216 216 218 218 215 217 222 224 227 230 232 234 238 241 243 247 249 252 253 250 252 254 254 257 262 268
264 259 254 248 246 242 241 236 231 224 218 214 209 213 216 216 216 214 214 211 213 213 212 212 216 215 216 218 215 217 223 224 229 234 236 238 238 238 245 247 248 246 248 252 253 252 252 257 255
267 260 253 247 243 238 236 233 227 220 216 214 209 212 215 215 215 213 212 211 211 212 210 209 213 215 215 213 214 213 218 222 228 232 234 237 238 240 243 245 241 239 243 243 248 251 255 257 256
275 266 256 246 241 235 231 228 222 217 214 213 209 211 215 215 215 212 213 212 211 213 212 210 211 216 213 216 213 212 226 228 232 228 233 237 234 240 238 239 239 241 236 240 247 248 253 248 252
275 269 259 246 238 232 228 222 215 214 212 211 208 209 210 214 215 211 211 209 210 212 213 210 209 211 211 214 213 211 211 217 227 228 233 236 239 245 242 238 238 244 241 239 242 241 245 250 257
276 266 256 242 230 225 221 213 206 209 207 207 205 208 208 210 214 211 209 209 209 211 211 210 207 208 210 210 210 213 209 214 213 216 228 235 230 239 240 240 241 245 249 249 244 244 248 248 255
272 268 253 245 225 224 215 207 203 205 205 203 202 205 206 208 213 212 209 208 208 211 210 210 208 208 209 210 210 212 211 212 213 217 224 226 230 235 241 241 240 250 249 247 245 244 243 245 248
275 262 245 240 216 219 207 207 203 202 200 199 200 201 204 205 210 212 209 207 207 210 210 209 209 208 209 209 208 211 211 212 216 215 225 225 229 233 236 237 246 245 246 244 247 244 241 243 249
274 257 239 230 212 210 205 206 204 201 199 199 198 200 201 203 207 212 209 206 207 209 209 208 208 209 209 209 209 210 214 211 215 218 217 227 231 234 235 243 244 238 241 242 245 244 241 245 245
266 247 234 226 213 208 201 204 204 201 198 197 197 199 200 202 206 209 210 205 206 208 210 208 209 210 209 208 210 209 211 209 209 213 217 223 228 230 236 236 233 235 240 241 241 245 242 242 248
269 247 227 217 206 205 199 203 202 201 199 197 196 198 199 201 207 209 210 205 205 208 209 208 208 209 210 209 209 209 211 210 208 214 216 223 223 228 230 227 236 242 240 242 243 244 240 245 248
279 245 225 210 198 199 196 197 199 200 199 194 197 196 199 202 207 208 209 206 205 207 208 209 209 208 210 210 210 210 212 212 211 214 216 223 221 228 232 236 242 243 241 241 243 241 239 245 246
289 244 221 203 191 191 193 197 200 197 196 195 195 193 197 202 206 208 207 208 205 207 209 209 210 210 209 211 212 211 211 213 213 213 216 219 219 227 229 236 240 241 241 240 241 242 243 245 248
292 240 208 191 182 187 192 195 198 197 195 194 193 193 197 200 203 206 206 207 205 207 209 210 210 210 210 210 212 213 213 212 216 216 216 215 215 224 229 230 240 245 242 241 241 243 244 247 249
290 239 198 186 186 191 190 195 197 196 193 194 192 194 199 200 201 204 204 205 205 208 209 210 210 211 212 210 211 213 214 215 216 217 218 221 224 224 223 233 232 238 243 242 241 242 244 246 249
290 231 204 186 193 192 193 196 195 194 193 193 191 195 199 200 202 202 202 202 207 208 210 211 211 211 212 212 211 212 212 214 216 216 219 221 222 223 230 225 228 233 237 241 244 244 244 246 247
303 243 209 191 194 194 194 197 196 193 195 194 193 198 199 199 199 199 198 200 205 208 210 211 213 212 212 212 212 212 213 211 215 216 218 218 217 219 220 218 223 234 233 240 244 247 246 247 248
312 247 211 198 199 195 197 197 195 193 195 196 195 197 198 197 194 195 196 200 204 206 209 211 214 215 213 213 214 213 213 213 214 216 216 215 216 222 222 221 225 230 237 239 241 244 245 246 249
316 259 210 206 204 197 200 199 197 194 194 196 195 196 197 194 191 191 196 202 203 205 207 208 211 214 212 213 214 213 213 213 214 215 216 215 217 220 222 225 227 229 231 236 237 239 240 246 247
314 263 215 210 205 198 199 199 200 197 194 195 194 197 192 188 190 192 199 202 202 204 205 207 210 214 213 213 214 213 212 214 214 214 216 215 214 222 224 222 225 229 231 236 241 242 240 245 248